Regional Weather Roundup
Issued by NWS Newport/Morehead, NC

Current Version | Previous Version | Graphics & Text | Print | Product List | Glossary On
Versions: 1 2 3 4 5 6 7 8 9 10 11 12 13 14 15 16 17 18 19 20 21 22 23 24 25 26 27 28 29 30 31 32 33 34 35 36 37 38 39 40 41 42 43 44 45 46 47 48 49 50
000 ASUS42 KMHX 290212 RWRMHX WEATHER ROUNDUP FOR EASTERN NORTH CAROLINA NATIONAL WEATHER SERVICE NEWPORT/MOREHEAD CITY NC 1000 PM EDT SAT MAR 28 2015 NOTE: "FAIR" INDICATES FEW OR NO CLOUDS BELOW 12,000 FEET WITH NO SIGNIFICANT WEATHER AND/OR OBSTRUCTIONS TO VISIBILITY NCZ015>017-031-032-045>047-102-103-290300- NORTH COAST CITY SKY/WX TMP DP RH WIND PRES REMARKS EDENTON CLEAR 32 27 80 CALM 30.20R ELIZABETH CITY PTCLDY 32 22 66 NW7 30.19R KITTY HAWK CLEAR 38 19 47 NW5 30.17R MANTEO CLEAR 39 18 42 N10G17 30.18R $$ NCZ045>047-081-094-103-104-290300- CENTRAL COAST CITY SKY/WX TMP DP RH WIND PRES REMARKS FRISCO CLEAR 39 23 52 N9 30.19R SWANQUARTER N/A 34 N/A N/A N1 30.15S $$ NCZ095-097-098-100-101-290300- SOUTHERN COAST CITY SKY/WX TMP DP RH WIND PRES REMARKS BEAUFORT CLEAR 37 24 59 N7 30.19R CEDAR ISLAND N/A 43 N/A N/A N13G18 30.21S JACKSONVILLE CLEAR 40 23 50 N6 30.19R PINEY ISLAND CLEAR N/A N/A N/A N9 30.19R WILMINGTON CLEAR 42 25 50 N8 30.18R $$ NCZ011>013-027>030-043-044-078>080-089-090>093-098-290300- COASTAL PLAIN CITY SKY/WX TMP DP RH WIND PRES REMARKS AHOSKIE CLEAR 33 17 51 N7 30.23R CLINTON CLEAR 36 30 77 CALM 30.20R ELIZABETHTOWN CLEAR 39 28 64 CALM 30.19R GOLDSBORO CLEAR 40 20 45 N10 30.19R GREENVILLE CLEAR 36 21 55 CALM 30.22R HAVELOCK CLEAR 42 17 36 NW12 30.19R KENANSVILLE CLEAR 33 27 79 CALM 30.20R KINSTON NOT AVBL NEW BERN CLEAR 39 21 48 N5 30.20R RICHLANDS CLEAR 36 21 55 NW3 30.19R ROCKY MOUNT NOT AVBL WASHINGTON CLEAR 35 22 58 CALM 30.21R WHITEVILLE CLEAR 41 29 64 CALM 30.18R $$ AMZ130-135-150-152-154-156-158-170-250-252-270-ANZ085-086-088-633-658-670-290300- MARINE OBSERVATIONS STATION/POSITION TIME TEMP WIND PRES WAVE SWELL AIR SEA DIR/SP/G HT/PER HT/PER (UTC) (F) (DEG/KT/KT) (MB) (FT/S) (FT/S) CHESAPEAKE LIGHT 0100 36 340/ 26/ 27 1021.7 64 E VA BEACH 0150 38 57 340/ 21/ 27 1020.8 6/ 6 3/ 9 DUCK 0100 39 42 310/ 13/ 16 1020.2 2 E DUCK 0111 41 N/A 4/ 8 2/11 10 NE DUCK NOT AVBL OREGON INLET 0100 37 46 340/ 6/ 9 1021.2 HATTERAS CG 0100 42 54 350/ 14/ 24 1021.5 CAPE LOOKOUT 0200 43 350/ 13/ 16 1021.9 BEAUFORT LAB 0100 44 56 350/ 10/ 15 1020.4 27 SE WRIGHTSVLE 0100 48 65 360/ 19/ 21 1021.8 5 SE WRIGHTSVLE 0100 49 56 10/ 17/ 21 1021.0 225 S CAPE HAT 0150 60 68 300/ 19/ 25 1019.0 10/ 9 3/12 41 SE CHARLESTON 0150 56 68 330/ 16/ 21 1021.3 4/ 5 2/ 9 $$

USA.gov is the U.S. government's official web portal to all federal, state and local government web resources and services.